Regional Weather Roundup
Issued by NWS Mt. Holly, NJ

Home | Current Version | Previous Version | Text Only | Print | Product List | Glossary On
Versions: 1 2 3 4 5 6 7 8 9 10 11 12 13 14 15 16 17 18 19 20 21 22 23 24 25 26 27 28 29 30 31 32 33 34 35 36 37 38 39 40 41 42 43 44 45 46 47 48 49 50
000
ASUS41 KPHI 182310
RWRPHI

REGIONAL WEATHER ROUNDUP
NATIONAL WEATHER SERVICE MOUNT HOLLY NJ
700 PM EDT THU SEP 18 2014

NOTE:  "FAIR" INDICATES FEW OR NO CLOUDS BELOW 12,000 FEET WITH NO
SIGNIFICANT WEATHER AND/OR OBSTRUCTIONS TO VISIBILITY.

 * = STATION DOES NOT REPORT PRECIPITATION (E.G. RAIN, SNOW, ETC.)
        OR FOG.

NJZ015>026-190000-
SOUTHERN NEW JERSEY

CITY           SKY/WX    TMP DP  RH WIND       PRES   REMARKS
POMONA         MOCLDY    69  53  56 S3        30.02R
RIO GRANDE*    CLOUDY    70  52  52 S6        30.03S
MILLVILLE      MOCLDY    66  59  78 CALM      30.02S
WRIGHTSTOWN    MOCLDY    66  57  71 SW6       29.99S
MOUNT HOLLY    PTCLDY    67  55  65 CALM      30.01S
TRENTON        CLEAR     70  50  49 CALM      30.00R

$$
NJZ001>014-190000-
NORTHERN NEW JERSEY

CITY           SKY/WX    TMP DP  RH WIND       PRES   REMARKS
SUSSEX         CLEAR     64  50  60 CALM      30.02S
ANDOVER*         N/A     60  51  72 CALM      30.03R
MORRISTOWN     PTCLDY    66  50  55 N3        30.01R
NEWARK         PTCLDY    73  43  33 NW10      30.00R
TETERBORO      CLEAR     72  41  32 N7        29.99R
CALDWELL       CLEAR     67  46  47 CALM      30.01S
ALLAIRE*       CLEAR     66  52  59 CALM      30.01S
TOMS RIVER*    PTCLDY    66  55  68 CALM      30.02S

$$
PAZ043-044-047-054-055-060>062-066>071-190000-
EASTERN PENNSYLVANIA

CITY           SKY/WX    TMP DP  RH WIND       PRES   REMARKS
PHILADELPHIA   PTCLDY    70  55  59 SW8       30.02R
NORTH PHILA    CLOUDY    73  52  47 W8        30.02R
BLUE BELL      CLEAR     68  55  64 CALM      30.00S
DOYLESTOWN     PTCLDY    69  47  45 N3        30.01R
QUAKERTOWN*    CLEAR     68  46  45 N3        30.03R
POTTSTOWN      CLEAR     65  51  60 CALM      30.03R
LANCASTER      CLEAR     67  43  41 N5        30.03R
COATESVILLE    PTCLDY    64  55  72 CALM      30.04R
READING        CLEAR     68  45  43 NW6       30.02R
ALLENTOWN      CLEAR     67  42  40 NW3       30.02R
MOUNT POCONO   CLEAR     60  44  55 N3        30.06R
HAZLETON       CLEAR     59  46  63 CALM      30.08S
WILKES BARRE   CLEAR     66  43  43 N5        30.04S

$$
DEZALL-MDZ008-012-015-019-020-190000-
DELAWARE AND EASTERN MARYLAND

CITY           SKY/WX    TMP DP  RH WIND       PRES   REMARKS
WILMINGTON     CLEAR     69  56  62 SW3       30.03R
DOVER          CLOUDY    69  54  58 SW3       30.01R
GEORGETOWN     CLOUDY    68  56  65 S8        30.03S
EASTON         CLOUDY    68  63  83 CALM      30.06R
PATUXENT       MOCLDY    71  52  50 CALM      30.02R
OCEAN CITY     CLOUDY    69  52  54 S3        30.02S
WALLOPS ISLAND PTCLDY    69  54  58 S7        30.03S
CAMBRIDGE      MOCLDY    72  59  64 E5        30.02R
SALISBURY      CLOUDY    70  56  61 SE3       30.02S

$$
PAZ001-021-NYZ056-072-MDZ011-DCZ001-190000-
OTHER NEARBY LOCATIONS

CITY           SKY/WX    TMP DP  RH WIND       PRES   REMARKS
HARRISBURG     PTCLDY    71  46  40 N5        30.03R
STATE COLLEGE  CLEAR     64  45  48 CALM      30.07S
WILLIAMSPORT   CLEAR     64  51  62 CALM      30.03S
BINGHAMTON     PTCLDY    56  50  80 N14       30.09R
NEW YORK CITY  CLEAR     72  41  32 CALM      30.03R
BALTIMORE      PTCLDY    68  60  75 SE3       30.02R
WASHINGTON DC  PTCLDY    74  57  55 NE10      30.02R

$$



USA.gov is the U.S. government's official web portal to all federal, state and local government web resources and services.